Погода в Гусихе

Россия / Республика Бурятия     53°25′55″N   109°15′42″E
темп.,
°C
ветер,
м/с
пор.,
м/с
влажн.,
%
обл.,
%
осадки,
мм/ч
давл.,
гПа
погр.,
м
5 декабря, вс
вс523:00−5з398278 0.0 1017332
02:00−5з2583100 0.0 1019118
05:00−5зюз3782100 0.0 1019239
08:00−4з41077100 0.0 1020517
11:00−3з6136779 0.1 10211444
14:00−4з5866100 0.3 10231220
17:00−7з367498 0.1 1026184
20:00−8з387977 0.1 1028318
6 декабря, пн
пн623:00−9з278396 0.1 1028358
02:00−9с129499 0.1 102742
05:00−7св119678 0.6 102555
08:00−12св119669 0.6 102411
11:00−7з018063 0.0 102286
14:00−5зсз127860 0.0 1021205
17:00−8всв119527 0.0 102214
20:00−10всв119430 0.0 102315
7 декабря, вт
вт723:00−9всв119279 0.0 102315
02:00−9ссв119475 0.0 102311
05:00−10св11955 0.0 102311
08:00−12св119616 0.0 102410
11:00−5в00775 0.0 102254
14:00−1всв116956 0.0 101964
17:00−7всв328810 0.0 101927
20:00−8в338843 0.0 101843
8 декабря, ср
ср823:00−10в239280 0.0 101844
02:00−11всв1195100 0.0 101919
05:00−10вюв1193100 0.0 102011
08:00−11св1192100 0.0 102116
11:00−7з1183100 0.0 102153
14:00−3з128483 0.0 1021133
17:00−10с119531 0.0 102414
20:00−12ссв119573 0.0 102633
9 декабря, чт
чт923:00−13с119486 0.1 102821
02:00−14ссв019794 0.1 103018
05:00−17всв119775 0.0 103116
08:00−16всв119597 0.0 103322
11:00−11вюв018595 0.0 1033155
14:00−9сз136899 0.1 1033754
17:00−12сз168289 0.0 1036309
20:00−11зсз3788100 1.1 1037784